Weather History for Laramie, WY

Change the Weather History Date:

Friday, September 19, 2014

  Actual Average Record
Temperature  
Mean Temperature 63 °F 52 °F  
Max Temperature 79 °F 67 °F 86 °F (2010)
Min Temperature 47 °F 37 °F 18 °F (1971)
Degree Days  
Heating Degree Days 2 13  
Month to date heating degree days 178 181  
Since 1 July heating degree days 357 353  
Cooling Degree Days 0 0  
Month to date cooling degree days 0 0  
Year to date cooling degree days 67 66  
Growing Degree Days 12 (Base 50)    
Moisture  
Dew Point 39 °F    
Average Humidity 44    
Maximum Humidity 61    
Minimum Humidity 26    
Precipitation  
Precipitation 0.00 in 0.04 in 0.92 in (1997)
Month to date precipitation 0.64 0.72  
Year to date precipitation 11.43 8.87  
Sea Level Pressure  
Sea Level Pressure 29.83 in    
Wind  
Wind Speed 10 mph (SW)    
Max Wind Speed 23 mph    
Max Gust Speed 29 mph    
Visibility 10 miles    
Events      
T = Trace of Precipitation, MM = Missing Value Source: NWS Daily Summary

Daily Weather History Graph

Daily Weather History Graph

Search for Another Location

Airport:

Trip Planner

Search our weather history database for the weather conditions in past years. The results will help you decide how hot, cold, wet, or windy it might be!

Date:

Astronomy

Sep. 19, 2014 Rise Set
Actual Time 6:47 AM MDT 7:04 PM MDT
Civil Twilight 6:19 AM MDT 7:32 PM MDT
Nautical Twilight 5:47 AM MDT 8:04 PM MDT
Astronomical Twilight 5:13 AM MDT 8:38 PM MDT
Moon 2:32 AM MDT (9/19) 4:37 PM MDT (9/19)
Length of Visible Light 13h 12m
Length of Day
12h 17m
Waning Crescent, 18% of the Moon is Illuminated
Sep 19
Waning Crescent
Sep 24
New
Oct 1
First Quarter
Oct 8
Full
Oct 15
Last Quarter

Hourly Weather History & Observations

Time (MDT) Temp. Dew Point Humidity Pressure Visibility Wind Dir Wind Speed Gust Speed Precip Events Conditions
12:53 AM 53.1 °F 37.0 °F 55% 29.73 in 10.0 mi SSW 5.8 mph - N/A   Mostly Cloudy
1:53 AM 51.1 °F 36.0 °F 56% 29.74 in 10.0 mi South 6.9 mph - N/A   Scattered Clouds
2:53 AM 50.0 °F 36.0 °F 59% 29.74 in 10.0 mi South 9.2 mph - N/A   Partly Cloudy
3:53 AM 48.0 °F 36.0 °F 63% 29.76 in 10.0 mi SSW 4.6 mph - N/A   Partly Cloudy
4:53 AM 48.0 °F 36.0 °F 63% 29.77 in 10.0 mi SE 9.2 mph - N/A   Partly Cloudy
5:53 AM 48.9 °F 35.1 °F 59% 29.81 in 10.0 mi ESE 6.9 mph - N/A   Clear
7:53 AM 55.0 °F 39.0 °F 55% 29.89 in 10.0 mi ESE 5.8 mph - N/A   Clear
8:53 AM 61.0 °F 39.9 °F 46% 29.86 in 10.0 mi SSE 4.6 mph - N/A   Clear
9:53 AM 66.9 °F 41.0 °F 39% 29.83 in 10.0 mi SW 13.8 mph - N/A   Clear
10:53 AM 72.0 °F 41.0 °F 33% 29.82 in 10.0 mi SSW 16.1 mph - N/A   Clear
11:53 AM 75.0 °F 41.0 °F 29% 29.80 in 10.0 mi WSW 13.8 mph 20.7 mph N/A   Clear
12:53 PM 77.0 °F 41.0 °F 28% 29.80 in 10.0 mi NW 17.3 mph 29.9 mph N/A   Mostly Cloudy
1:07 PM 77.0 °F 41.0 °F 28% 30.13 in 10.0 mi NW 11.5 mph - N/A   Mostly Cloudy
1:53 PM 73.9 °F 39.9 °F 29% 29.81 in 10.0 mi NW 10.4 mph - N/A   Scattered Clouds
2:53 PM 75.0 °F 41.0 °F 29% 29.80 in 10.0 mi NNW 10.4 mph - N/A   Mostly Cloudy
3:53 PM 77.0 °F 39.9 °F 26% 29.79 in 10.0 mi WNW 13.8 mph - N/A   Clear
4:53 PM 75.0 °F 41.0 °F 29% 29.81 in 10.0 mi NW 16.1 mph 25.3 mph N/A   Partly Cloudy
5:53 PM 72.0 °F 41.0 °F 33% 29.82 in 10.0 mi WNW 17.3 mph - N/A   Clear
6:53 PM 66.9 °F 37.9 °F 34% 29.86 in 10.0 mi WNW 12.7 mph - N/A   Clear
8:53 PM 57.0 °F 39.0 °F 51% 29.90 in 10.0 mi SW 6.9 mph - N/A   Clear
9:53 PM 59.0 °F 39.9 °F 49% 29.88 in 10.0 mi WSW 5.8 mph - N/A   Clear
10:53 PM 53.1 °F 39.9 °F 61% 29.91 in 10.0 mi ESE 5.8 mph - N/A   Clear
11:53 PM 54.0 °F 39.9 °F 59% 29.89 in 10.0 mi SSE 4.6 mph - N/A   Clear